• En España
  • Lista de países
  • Para 7 días
  • Temperatura del agua
  • Mapa Satelital
  • El tiempo en el mapa
  • Informadores
  • user-avatar
    Iniciar sesión

    Tiempo cada hora Komsomolskiy

    Hoy, 17 Agosto, Viernes

    Tiempo Temperatura Precipitaciones Viento Presión Humedad
    00:00 +10°C° 0 mm 3 mps 737 mmHg 97%
    01:00 +9°C° 0 mm 3 mps 737 mmHg 97%
    02:00 +9°C° 0 mm 3 mps 738 mmHg 96%
    03:00 +8°C° 0 mm 3 mps 738 mmHg 95%
    04:00 +8°C° 0 mm 3 mps 738 mmHg 95%
    05:00 +8°C° 0 mm 3 mps 739 mmHg 92%
    06:00 +8°C° 0 mm 3 mps 739 mmHg 89%
    07:00 +9°C° 0 mm 3 mps 740 mmHg 87%
    08:00 +11°C° 0 mm 4 mps 740 mmHg 77%
    09:00 +13°C° 0 mm 4 mps 740 mmHg 66%
    10:00 +15°C° 0 mm 4 mps 740 mmHg 56%
    11:00 +15°C° 0,1 mm 4 mps 740 mmHg 56%
    12:00 +17°C° 0,1 mm 4 mps 740 mmHg 57%
    13:00 +17°C° 0,1 mm 3 mps 741 mmHg 57%
    14:00 +17°C° 0,4 mm 4 mps 741 mmHg 62%
    15:00 +15°C° 0,4 mm 4 mps 741 mmHg 67%
    16:00 +15°C° 0,4 mm 4 mps 741 mmHg 73%
    17:00 +14°C° 0,3 mm 3 mps 741 mmHg 78%
    18:00 +13°C° 0,3 mm 3 mps 741 mmHg 84%
    19:00 +11°C° 0,3 mm 3 mps 741 mmHg 90%
    20:00 +10°C° 0 mm 3 mps 741 mmHg 92%
    21:00 +9°C° 0 mm 2 mps 742 mmHg 94%
    22:00 +8°C° 0 mm 2 mps 742 mmHg 96%
    23:00 +8°C° 0 mm 2 mps 742 mmHg 96%

    Mañana, 18 Agosto, Sábado

    Tiempo Temperatura Precipitaciones Viento Presión Humedad
    00:00 +7°C° 0 mm 2 mps 742 mmHg 97%
    01:00 +7°C° 0 mm 2 mps 742 mmHg 97%
    02:00 +7°C° 0 mm 2 mps 742 mmHg 97%
    03:00 +6°C° 0 mm 2 mps 743 mmHg 97%
    04:00 +6°C° 0 mm 2 mps 743 mmHg 98%
    05:00 +7°C° 0 mm 2 mps 743 mmHg 96%
    06:00 +7°C° 0 mm 2 mps 743 mmHg 95%
    07:00 +8°C° 0 mm 3 mps 744 mmHg 94%
    08:00 +9°C° 0 mm 3 mps 744 mmHg 85%
    09:00 +11°C° 0 mm 3 mps 744 mmHg 76%
    10:00 +12°C° 0 mm 3 mps 744 mmHg 67%
    11:00 +13°C° 0,1 mm 3 mps 744 mmHg 63%
    12:00 +14°C° 0,1 mm 3 mps 744 mmHg 59%
    13:00 +14°C° 0,1 mm 3 mps 744 mmHg 55%
    14:00 +16°C° 0 mm 3 mps 744 mmHg 54%
    15:00 +16°C° 0 mm 3 mps 744 mmHg 54%
    16:00 +16°C° 0 mm 3 mps 744 mmHg 53%
    17:00 +14°C° 0 mm 3 mps 744 mmHg 59%
    18:00 +14°C° 0 mm 2 mps 744 mmHg 66%
    19:00 +13°C° 0 mm 2 mps 744 mmHg 73%
    20:00 +11°C° 0 mm 1 mps 744 mmHg 79%
    21:00 +10°C° 0 mm 1 mps 744 mmHg 85%
    22:00 +8°C° 0 mm 1 mps 744 mmHg 91%
    23:00 +7°C° 0 mm 1 mps 745 mmHg 92%

    Pasado mañana, 19 Agosto, Domingo

    Tiempo Temperatura Precipitaciones Viento Presión Humedad
    00:00 +7°C° 0 mm 1 mps 745 mmHg 92%
    01:00 +7°C° 0 mm 1 mps 745 mmHg 93%
    02:00 +7°C° 0 mm 1 mps 745 mmHg 93%
    03:00 +6°C° 0 mm 1 mps 745 mmHg 94%
    04:00 +6°C° 0 mm 1 mps 745 mmHg 94%
    05:00 +8°C° 0 mm 1 mps 745 mmHg 89%
    06:00 +9°C° 0 mm 1 mps 745 mmHg 85%
    07:00 +9°C° 0 mm 0 mps 745 mmHg 80%
    08:00 +12°C° 0 mm 0 mps 745 mmHg 72%
    09:00 +15°C° 0 mm 1 mps 745 mmHg 63%
    10:00 +19°C° 0 mm 1 mps 745 mmHg 55%
    11:00 +20°C° 0 mm 1 mps 745 mmHg 51%
    12:00 +21°C° 0 mm 1 mps 744 mmHg 47%
    13:00 +22°C° 0 mm 1 mps 744 mmHg 43%
    14:00 +22°C° 0 mm 1 mps 744 mmHg 43%
    15:00 +22°C° 0 mm 1 mps 743 mmHg 43%
    16:00 +22°C° 0 mm 1 mps 743 mmHg 43%
    17:00 +20°C° 0 mm 1 mps 743 mmHg 51%
    18:00 +19°C° 0 mm 1 mps 743 mmHg 59%
    19:00 +16°C° 0 mm 1 mps 742 mmHg 67%
    20:00 +15°C° 0 mm 1 mps 742 mmHg 70%
    21:00 +14°C° 0 mm 1 mps 742 mmHg 73%
    22:00 +12°C° 0 mm 1 mps 742 mmHg 76%
    23:00 +12°C° 0 mm 1 mps 742 mmHg 78%

    20 Agosto, Lunes

    Tiempo Temperatura Precipitaciones Viento Presión Humedad
    00:00 +12°C° 0 mm 1 mps 742 mmHg 80%
    01:00 +11°C° 0 mm 1 mps 742 mmHg 83%
    02:00 +12°C° 0 mm 1 mps 742 mmHg 84%
    03:00 +12°C° 0 mm 1 mps 741 mmHg 85%
    04:00 +12°C° 0 mm 1 mps 741 mmHg 86%
    05:00 +13°C° 0 mm 2 mps 741 mmHg 85%
    06:00 +13°C° 0 mm 2 mps 741 mmHg 85%
    07:00 +14°C° 0 mm 2 mps 741 mmHg 84%
    08:00 +15°C° 0 mm 2 mps 741 mmHg 79%
    09:00 +17°C° 0 mm 2 mps 741 mmHg 75%
    10:00 +18°C° 0 mm 3 mps 740 mmHg 70%
    11:00 +20°C° 0,1 mm 3 mps 740 mmHg 65%
    12:00 +21°C° 0,1 mm 3 mps 740 mmHg 60%
    13:00 +22°C° 0,1 mm 4 mps 739 mmHg 56%
    14:00 +22°C° 0,1 mm 3 mps 739 mmHg 55%
    15:00 +22°C° 0,1 mm 3 mps 739 mmHg 54%
    16:00 +22°C° 0,1 mm 3 mps 739 mmHg 53%
    17:00 +21°C° 0,1 mm 3 mps 738 mmHg 63%
    18:00 +19°C° 0,1 mm 3 mps 738 mmHg 72%
    19:00 +18°C° 0,1 mm 2 mps 738 mmHg 82%
    20:00 +17°C° 0,1 mm 2 mps 738 mmHg 86%
    21:00 +16°C° 0,1 mm 2 mps 738 mmHg 89%
    22:00 +15°C° 0,1 mm 2 mps 737 mmHg 93%
    23:00 +15°C° 0,2 mm 2 mps 737 mmHg 94%

    21 Agosto, Martes

    Tiempo Temperatura Precipitaciones Viento Presión Humedad
    00:00 +15°C° 0,2 mm 2 mps 737 mmHg 95%
    01:00 +15°C° 0,2 mm 2 mps 737 mmHg 96%
    02:00 +15°C° 0,3 mm 2 mps 736 mmHg 97%
    03:00 +15°C° 0,3 mm 2 mps 736 mmHg 97%
    04:00 +15°C° 0,3 mm 2 mps 736 mmHg 97%
    05:00 +15°C° 0,7 mm 2 mps 736 mmHg 98%
    06:00 +15°C° 0,7 mm 2 mps 735 mmHg 98%
    07:00 +15°C° 0,7 mm 2 mps 735 mmHg 98%
    08:00 +14°C° 0,6 mm 3 mps 735 mmHg 96%
    09:00 +16°C° 0,6 mm 3 mps 735 mmHg 94%
    10:00 +16°C° 0,6 mm 3 mps 735 mmHg 91%
    11:00 +17°C° 0,1 mm 3 mps 735 mmHg 87%
    12:00 +18°C° 0,1 mm 3 mps 736 mmHg 82%
    13:00 +18°C° 0,1 mm 3 mps 736 mmHg 77%
    14:00 +19°C° 0,2 mm 3 mps 736 mmHg 74%
    15:00 +19°C° 0,2 mm 3 mps 736 mmHg 71%
    16:00 +19°C° 0,2 mm 3 mps 736 mmHg 69%
    17:00 +18°C° 0,3 mm 3 mps 736 mmHg 75%
    18:00 +17°C° 0,3 mm 2 mps 736 mmHg 82%
    19:00 +16°C° 0,3 mm 2 mps 736 mmHg 89%
    20:00 +14°C° 0 mm 2 mps 736 mmHg 91%
    21:00 +13°C° 0 mm 2 mps 737 mmHg 93%
    22:00 +12°C° 0 mm 2 mps 737 mmHg 95%
    23:00 +10°C° 0 mm 2 mps 737 mmHg 95%

    22 Agosto, Miércoles

    Tiempo Temperatura Precipitaciones Viento Presión Humedad
    00:00 +11°C° 0 mm 1 mps 737 mmHg 94%
    01:00 +10°C° 0 mm 1 mps 737 mmHg 94%
    02:00 +10°C° 0 mm 1 mps 737 mmHg 94%
    03:00 +9°C° 0 mm 1 mps 738 mmHg 94%
    04:00 +9°C° 0 mm 1 mps 738 mmHg 94%
    05:00 +10°C° 0 mm 1 mps 738 mmHg 92%
    06:00 +10°C° 0 mm 1 mps 738 mmHg 90%
    07:00 +11°C° 0 mm 1 mps 738 mmHg 88%
    08:00 +13°C° 0 mm 1 mps 738 mmHg 79%
    09:00 +15°C° 0 mm 1 mps 738 mmHg 69%
    10:00 +19°C° 0 mm 1 mps 738 mmHg 59%
    11:00 +19°C° 0 mm 1 mps 738 mmHg 55%
    12:00 +20°C° 0 mm 1 mps 738 mmHg 50%
    13:00 +20°C° 0 mm 2 mps 737 mmHg 45%
    14:00 +21°C° 0 mm 1 mps 737 mmHg 47%
    15:00 +20°C° 0 mm 1 mps 737 mmHg 49%
    16:00 +20°C° 0 mm 1 mps 737 mmHg 52%
    17:00 +19°C° 0 mm 1 mps 737 mmHg 57%
    18:00 +18°C° 0 mm 1 mps 736 mmHg 63%
    19:00 +14°C° 0 mm 0 mps 736 mmHg 69%
    20:00 +13°C° 0 mm 0 mps 736 mmHg 70%
    21:00 +14°C° 0 mm 1 mps 736 mmHg 72%
    22:00 +13°C° 0 mm 1 mps 736 mmHg 73%
    23:00 +12°C° 0 mm 1 mps 735 mmHg 75%
    Mostrar más